NOAA 16 DEB, 41397

Orbit data source: Space-Track

NOAA 16 DEB, 41397 is space debris in SSO originally from a launch on Thu, 21 Sep 2000 UTC launched from the Air Force Western Test Range (AFWTR). Debris objects in space refer to the collection of defunct objects orbiting the Earth. Examples of debris include non-operational satellites, rocket bodies, and fragments generated from explosions, collisions, or faulty payload assembly.

Loading next visibility...
Identifier
41397, 2000-055KA
Orbit
SSO
Country
Flag of USUS
Related business
Manufacturer
Unknown
Mission
Spacecraft
Bus & Motor
Unknown
Mass
Unknown
Launch date (UTC)
2000-09-21 (26 years ago)
Launch vehicle
Unknown
Launch site
Air Force Western Test Range (AFWTR)
Object type
Payload
Rocket body
Debris
Shape & HBR
Unknown shape, 0.1 m
Radar Cross Section
Medium (>0.1 m² and <1 m²)

Expand to show TLE details & history
Last TLE update: 1 week ago

TLE from 1 week ago
0 NOAA 16 DEB
1 41397U 00055KA  26164.74894198  .00006874  00000-0  16906-2 0  9992
2 41397  98.9398 348.7082 0031334 117.4914 242.9470 14.52319143535122
Epoch: 2026-06-13T17:58Z
TLE epoch observation values (Epoch: 2026-06-13T17:58:28.587Z)
Latitude
-0.00005°
Longitude
177.02952°
Altitude
731.205 km
Speed
7.484 km/s
True Right ascension
23h 14m 49s
True Declination
0° 00' 00"
Sunlit
Object was in daylight at epoch
Visualization orbit readout
Latitude
Unknown
Longitude
Unknown
Altitude
Unknown
Speed
Unknown
Apparent Right ascension
Unknown
Apparent Declination
Unknown
Sunlit
N/A
Visualization observer readout
Local Sidereal Time
23:19:21
Azimuth
Unknown
Elevation
Unknown
Doppler factor
Unknown
Orbital elements
Apogee altitude
737.437 km
Perigee altitude
692.985 km
Semi-major axis
7,093.348 km
Eccentricity
0.00313
Inclination
98.9398°
RAAN
348.7082°
Arg. of periapsis
117.4914°
True anomaly
242.6278°
Mean anomaly
242.947°
Eccentric anomaly
242.78734°
Mean motion
3.63301 °/min
Orbital period
99.09 mins
BSTAR
0.0016906
Loading maneuver chart data...
Computing Atmospheric mass density...
Loading historical data...
Loading historical data...
Loading historical data...
Loading historical data...
Loading historical data...
Loading historical data...
Loading historical data...

Documentation

Showing up to 5 results
|